This is the latest recevied weather packets stored in our database for station/object K9VSK-9. If no packets are shown the sender has not sent any weather packets the latest 10 day(s).
| Time | Temp. | Humidity | Pressure | Rain* | Wind** | Luminosity | Snow |
|---|---|---|---|---|---|---|---|
| 1777818377 | 12.22° C | 63% | 1016.3 hPa | 0 mm | - | - | - |
| 1777818077 | 12.22° C | 63% | 1016.4 hPa | 0 mm | - | - | - |
| 1777817778 | 11.67° C | 64% | 1016.2 hPa | 0 mm | - | - | - |
| 1777817476 | 11.67° C | 65% | 1016.4 hPa | 0 mm | - | - | - |
| 1777817176 | 11.11° C | 68% | 1016.4 hPa | 0 mm | - | - | - |
| 1777816876 | 11.11° C | 70% | 1016.5 hPa | 0 mm | - | - | - |
| 1777816575 | 10.56° C | 71% | 1016.7 hPa | 0 mm | - | - | - |
| 1777816275 | 10° C | 71% | 1016.9 hPa | 0 mm | - | - | - |
| 1777815975 | 10° C | 71% | 1016.9 hPa | 0 mm | - | - | - |
| 1777815674 | 10° C | 71% | 1016.9 hPa | 0 mm | - | - | - |
| 1777815374 | 10° C | 72% | 1016.9 hPa | 0 mm | - | - | - |
| 1777815074 | 9.44° C | 72% | 1016.9 hPa | 0 mm | - | - | - |
| 1777814774 | 9.44° C | 73% | 1017.1 hPa | 0 mm | - | - | - |
| 1777814473 | 9.44° C | 73% | 1017.3 hPa | 0 mm | - | - | - |
| 1777814174 | 9.44° C | 74% | 1017.2 hPa | 0 mm | - | - | - |
| 1777813873 | 9.44° C | 73% | 1017.3 hPa | 0 mm | - | - | - |
| 1777813573 | 9.44° C | 73% | 1017.3 hPa | 0 mm | - | - | - |
| 1777813273 | 9.44° C | 73% | 1017.4 hPa | 0 mm | - | - | - |
| 1777812972 | 9.44° C | 73% | 1017.3 hPa | 0 mm | - | - | - |
| 1777812672 | 8.89° C | 73% | 1017.1 hPa | 0 mm | - | - | - |
| 1777812372 | 8.89° C | 77% | 1017.1 hPa | 0 mm | - | - | - |
| 1777812072 | 8.89° C | 74% | 1017 hPa | 0 mm | - | - | - |
| 1777811771 | 8.89° C | 74% | 1016.9 hPa | 0 mm | - | - | - |
| 1777811471 | 8.89° C | 75% | 1016.8 hPa | 0 mm | - | - | - |
| 1777811170 | 8.33° C | 74% | 1017 hPa | 0 mm | - | - | - |
* Rain latest hour (hover to see other rain measurements)
** Current wind speed in m/s (hover to see current wind gust speed)